Perryton, TX

3:44 AM CDT on April 26, 2018 (GMT -0500)
Perryton Ochiltree County

Weather History for KPYX - March, 2014

Change the Weather History Date:

Saturday, March 22, 2014

  Actual Average Record
Temperature  
Mean Temperature 42 °F -  
Max Temperature 53 °F 62 °F 88 °F (2016)
Min Temperature 28 °F 30 °F 10 °F (1983)
Degree Days  
Heating Degree Days 24    
Moisture  
Dew Point 22 °F    
Average Humidity 51    
Maximum Humidity 84    
Minimum Humidity 28    
Precipitation  
Precipitation 0.00 in - - ()
Sea Level Pressure  
Sea Level Pressure 30.17 in    
Wind  
Wind Speed 12 mph (ENE)    
Max Wind Speed 26 mph    
Max Gust Speed 38 mph    
Visibility 10 miles    
Events      
Averages and records for this station are not official NWS values.
T = Trace of Precipitation, MM = Missing Value Source: NWS Daily Summary

Daily Weather History Graph

Daily Weather History Graph

Search for Another Location

Airport or City:

Astronomy

Mar. 22, 2014 Rise Set
Actual Time 7:43 AM CDT 7:56 PM CDT
Civil Twilight 7:17 AM CDT 8:22 PM CDT
Nautical Twilight 6:47 AM CDT 8:52 PM CDT
Astronomical Twilight 6:17 AM CDT 9:23 PM CDT
Moon 1:09 AM CDT (3/22) 11:36 AM CDT (3/22)
Length of Visible Light 13h 04m
Length of Day
12h 12m
Waning Gibbous, 65% of the Moon is Illuminated
Mar 22
Waning Gibbous
Mar 23
Last Quarter
Mar 30
New
Apr 7
First Quarter
Apr 15
Full

Hourly Weather History & Observations

Time (CDT) Temp. Windchill Dew Point Humidity Pressure Visibility Wind Dir Wind Speed Gust Speed Precip Events Conditions
12:15 AM 38.1 °F 32.3 °F 19.6 °F 47% 30.11 in 10.0 mi NNE 8.1 mph - N/A   Clear
12:35 AM 35.8 °F 30.1 °F 18.0 °F 48% 30.12 in 10.0 mi North 6.9 mph - N/A   Clear
12:55 AM 33.8 °F 28.6 °F 17.8 °F 52% 30.12 in 10.0 mi NNE 5.8 mph - N/A   Clear
1:15 AM 38.5 °F 32.7 °F 19.6 °F 47% 30.12 in 10.0 mi NNE 8.1 mph - N/A   Clear
1:35 AM 33.6 °F 26.8 °F 18.5 °F 54% 30.13 in 10.0 mi NNE 8.1 mph - N/A   Clear
1:55 AM 39.6 °F 32.1 °F 19.4 °F 44% 30.13 in 10.0 mi NE 12.7 mph - N/A   Clear
2:15 AM 38.8 °F 31.2 °F 20.1 °F 47% 30.14 in 10.0 mi NE 12.7 mph - N/A   Clear
2:35 AM 39.7 °F 31.5 °F 21.2 °F 48% 30.14 in 10.0 mi NE 15.0 mph - N/A   Clear
2:55 AM 39.6 °F 31.3 °F 22.1 °F 50% 30.15 in 10.0 mi NE 15.0 mph - N/A   Clear
3:15 AM 39.2 °F 30.8 °F 22.6 °F 52% 30.14 in 10.0 mi NE 15.0 mph 19.6 mph N/A   Clear
3:35 AM 38.8 °F 30.8 °F 23.2 °F 53% 30.13 in 10.0 mi NE 13.8 mph - N/A   Clear
3:55 AM 37.9 °F 29.2 °F 25.2 °F 60% 30.13 in 10.0 mi NE 15.0 mph - N/A   Clear
4:15 AM 37.4 °F 27.5 °F 26.6 °F 65% 30.13 in 10.0 mi ENE 18.4 mph 23.0 mph N/A   Clear
4:35 AM 35.8 °F 27.3 °F 26.2 °F 68% 30.14 in 10.0 mi NE 12.7 mph - N/A   Clear
4:55 AM 35.8 °F 26.1 °F 26.6 °F 69% 30.14 in 10.0 mi NE 16.1 mph 20.7 mph N/A   Clear
5:15 AM 35.6 °F 26.2 °F 26.6 °F 70% 30.15 in 10.0 mi NE 15.0 mph 18.4 mph N/A   Clear
5:35 AM 35.1 °F 25.5 °F 26.8 °F 72% 30.15 in 10.0 mi NE 15.0 mph - N/A   Clear
5:55 AM 34.3 °F 23.9 °F 26.8 °F 74% 30.16 in 10.0 mi NE 17.3 mph - N/A   Clear
6:15 AM 33.8 °F 23.5 °F 27.0 °F 76% 30.17 in 10.0 mi NE 16.1 mph 23.0 mph N/A   Clear
6:35 AM 32.9 °F 22.4 °F 27.0 °F 79% 30.17 in 10.0 mi NE 16.1 mph 23.0 mph N/A   Clear
6:55 AM 32.2 °F 22.7 °F 27.0 °F 81% 30.18 in 10.0 mi NE 12.7 mph - N/A   Clear
7:15 AM 32.0 °F 23.6 °F 26.6 °F 80% 30.19 in 10.0 mi NE 10.4 mph - N/A   Clear
7:35 AM 31.5 °F 22.9 °F 26.6 °F 82% 30.19 in 10.0 mi NE 10.4 mph - N/A   Clear
7:55 AM 30.7 °F 21.4 °F 26.2 °F 83% 30.20 in 10.0 mi NE 11.5 mph - N/A   Clear
8:15 AM 30.9 °F 20.2 °F 26.6 °F 84% 30.21 in 10.0 mi NE 15.0 mph - N/A   Clear
8:35 AM 31.1 °F 21.4 °F 26.8 °F 84% 30.21 in 10.0 mi NE 12.7 mph - N/A   Clear
8:55 AM 31.6 °F 20.4 °F 27.1 °F 83% 30.21 in 10.0 mi ENE 17.3 mph 21.9 mph N/A   Clear
9:15 AM 32.4 °F 20.9 °F 27.5 °F 82% 30.21 in 10.0 mi ENE 18.4 mph 21.9 mph N/A   Scattered Clouds
9:35 AM 33.1 °F 21.9 °F 27.5 °F 80% 30.21 in 10.0 mi ENE 18.4 mph 21.9 mph N/A   Clear
9:55 AM 34.9 °F 25.3 °F 27.5 °F 74% 30.22 in 10.0 mi East 15.0 mph - N/A   Clear
10:15 AM 36.0 °F 26.7 °F 27.5 °F 71% 30.22 in 10.0 mi ENE 15.0 mph - N/A   Clear
10:35 AM 36.5 °F 27.4 °F 27.1 °F 69% 30.22 in 10.0 mi ENE 15.0 mph 19.6 mph N/A   Clear
10:55 AM 37.8 °F 30.2 °F 27.3 °F 66% 30.21 in 10.0 mi ENE 11.5 mph 19.6 mph N/A   Clear
11:15 AM 39.4 °F 31.8 °F 27.1 °F 62% 30.22 in 10.0 mi ENE 12.7 mph 18.4 mph N/A   Clear
11:35 AM 41.0 °F 34.3 °F 27.1 °F 58% 30.22 in 10.0 mi East 11.5 mph 16.1 mph N/A   Clear
11:55 AM 41.7 °F 35.6 °F 26.8 °F 55% 30.21 in 10.0 mi East 10.4 mph - N/A   Clear
12:15 PM 42.6 °F 37.8 °F 27.0 °F 54% 30.21 in 10.0 mi East 8.1 mph - N/A   Clear
12:55 PM 44.4 °F 39.5 °F 25.9 °F 48% 30.19 in 10.0 mi ENE 9.2 mph - N/A   Clear
1:15 PM 46.4 °F 41.9 °F 25.7 °F 44% 30.17 in 10.0 mi East 9.2 mph 17.3 mph N/A   Clear
1:35 PM 47.1 °F - 25.0 °F 42% 30.16 in 10.0 mi East 11.5 mph 16.1 mph N/A   Clear
1:55 PM 48.2 °F - 24.4 °F 39% 30.16 in 10.0 mi East 10.4 mph 18.4 mph N/A   Clear
2:15 PM 48.7 °F - 23.5 °F 37% 30.15 in 10.0 mi ENE 10.4 mph - N/A   Clear
2:35 PM 50.0 °F - 23.4 °F 35% 30.14 in 10.0 mi ENE 10.4 mph 16.1 mph N/A   Clear
2:55 PM 50.2 °F - 23.0 °F 35% 30.12 in 10.0 mi East 13.8 mph - N/A   Clear
3:15 PM 51.1 °F - 23.4 °F 34% 30.11 in 10.0 mi East 10.4 mph - N/A   Clear
3:35 PM 51.8 °F - 23.2 °F 33% 30.10 in 10.0 mi East 9.2 mph 19.6 mph N/A   Clear
3:55 PM 52.0 °F - 23.2 °F 33% 30.09 in 10.0 mi ESE 13.8 mph 18.4 mph N/A   Clear
4:15 PM 52.7 °F - 22.6 °F 31% 30.08 in 10.0 mi East 11.5 mph 18.4 mph N/A   Clear
4:35 PM 52.9 °F - 22.1 °F 30% 30.08 in 10.0 mi East 10.4 mph 19.6 mph N/A   Clear
4:55 PM 52.5 °F - 21.6 °F 30% 30.08 in 10.0 mi East 10.4 mph 19.6 mph N/A   Clear
5:15 PM 53.1 °F - 21.0 °F 29% 30.08 in 10.0 mi East 10.4 mph - N/A   Clear
5:35 PM 52.9 °F - 20.7 °F 28% 30.08 in 10.0 mi East 11.5 mph 17.3 mph N/A   Clear
5:55 PM 52.0 °F - 20.5 °F 29% 30.09 in 10.0 mi East 12.7 mph 16.1 mph N/A   Clear
6:15 PM 52.0 °F - 20.8 °F 30% 30.11 in 10.0 mi East 10.4 mph - N/A   Clear
6:35 PM 50.9 °F - 20.3 °F 30% 30.11 in 10.0 mi ENE 12.7 mph - N/A   Clear
6:55 PM 50.0 °F - 20.5 °F 31% 30.12 in 10.0 mi East 12.7 mph - N/A   Clear
7:15 PM 49.1 °F - 20.1 °F 32% 30.14 in 10.0 mi ENE 15.0 mph - N/A   Clear
7:35 PM 47.8 °F - 19.6 °F 33% 30.15 in 10.0 mi NE 12.7 mph 18.4 mph N/A   Clear
7:55 PM 46.8 °F - 19.8 °F 34% 30.16 in 10.0 mi NE 15.0 mph 20.7 mph N/A   Clear
8:15 PM 45.5 °F 38.9 °F 20.1 °F 36% 30.17 in 10.0 mi ENE 15.0 mph - N/A   Clear
8:35 PM 44.1 °F 36.5 °F 19.4 °F 37% 30.18 in 10.0 mi NE 17.3 mph 21.9 mph N/A   Clear
8:55 PM 43.3 °F 36.1 °F 18.9 °F 38% 30.20 in 10.0 mi NE 15.0 mph - N/A   Clear
9:15 PM 42.6 °F 34.9 °F 18.1 °F 37% 30.21 in 10.0 mi NE 16.1 mph 20.7 mph N/A   Clear
9:35 PM 41.9 °F 33.7 °F 17.4 °F 37% 30.23 in 10.0 mi NE 17.3 mph 24.2 mph N/A   Clear
9:55 PM 40.8 °F 32.3 °F 17.2 °F 39% 30.24 in 10.0 mi ENE 17.3 mph 27.6 mph N/A   Clear
10:15 PM 38.8 °F 28.3 °F 16.2 °F 40% 30.26 in 10.0 mi NE 23.0 mph 33.4 mph N/A   Clear
10:35 PM 34.3 °F 21.5 °F 10.2 °F 37% 30.28 in 10.0 mi NE 26.5 mph 35.7 mph N/A   Clear
10:55 PM 32.2 °F 18.6 °F 8.8 °F 38% 30.31 in 10.0 mi NE 26.5 mph 34.5 mph N/A   Clear
11:15 PM 31.3 °F 17.4 °F 6.8 °F 36% 30.33 in 10.0 mi NE 26.5 mph 38.0 mph N/A   Clear
11:35 PM 30.2 °F 16.8 °F 5.9 °F 36% 30.35 in 10.0 mi NNE 23.0 mph 34.5 mph N/A   Clear
11:55 PM 28.9 °F 15.4 °F 7.3 °F 40% 30.36 in 10.0 mi NE 21.9 mph - N/A   Clear